Content
SEND FEEDBACK

Daily
Averages
Monthly
Summary
United States of America

ARCATA, CALIFORNIA


Home > North America > United States > California
Elevation: 217 feet     Latitude: 40 58N     Longitude: 124 06W

WEATHER
 
SELECT A DAY
Number of Records: 239,193;   Date Range: 1/1/95 - 7/7/14
 
SHARE

PRINT THIS DATA

[ ← Previous Day ]
WEATHER ALMANAC - APRIL 7, 2013
[ Next Day → ]
[ °C ]   °F
Weather ElementAverageHighLow
Temperature48.7 °F52 °F (1:53 am)42.1 °F (9:53 pm)
Dewpoint46.6 °F51.8 °F (1:46 am)39.2 °F (10:28 pm)
Humidity92.6 %100 % (1:46 am)80 % (11:53 am)
Barometer29.99 in30.13 in (9:53 am)29.81 in (7:43 pm)
Wind Speed7.3 mph15 mph (1:46 am)
Wind Gust17.3 mph (11:53 pm)
Weather ElementAverage
Visibility5.9 mi
Wind DirectionSSE (173.8 °)

Weather ElementTotal
Precipitation1.91 in
Heating Degree Days18 (Base 65)
Averaged from 45 records on April 7, 2013
WEATHER CONDITIONS BREAKOUT
WIND DIRECTION BREAKOUT
WEATHER BY HOUR - APRIL 7, 2013
[ °C ]   °F
Local TimeTemperatureDewpointHumidityBarometerVisibilityWind DirectionWind SpeedGust SpeedPrecipitationEventsConditions
1:46 AM51.8 °F51.8 °F100 %30.07 in2.5 miSouth (180°)15.0 mph0.02 inRainLight Rain
1:53 AM52.0 °F51.1 °F97 %30.09 in3.0 miSouth (190°)8.1 mph0.03 inRainLight Rain
2:53 AM52.0 °F50.0 °F93 %30.09 in10.0 miSouth (170°)6.9 mph0.01 inOvercast
3:12 AM51.8 °F50.0 °F94 %30.07 in10.0 miSouth (170°)9.2 mphOvercast
3:53 AM52.0 °F50.0 °F93 %30.08 in10.0 miSouth (170°)6.9 mphOvercast
4:53 AM52.0 °F51.1 °F97 %30.10 in4.0 miSW (230°)8.1 mph0.01 inRainLight Rain
5:04 AM51.8 °F50.0 °F94 %30.08 in6.0 miSW (230°)9.2 mph0.01 inOvercast
5:19 AM51.8 °F51.8 °F100 %30.08 in5.0 miSW (230°)8.1 mph0.01 inOvercast
5:48 AM51.8 °F50.0 °F94 %30.08 in4.0 miSW (230°)6.9 mph0.01 inOvercast
5:53 AM51.1 °F50.0 °F96 %30.10 in4.0 miWSW (250°)8.1 mph0.01 inOvercast
6:53 AM50.0 °F48.0 °F93 %30.10 in7.0 miWest (280°)3.5 mphOvercast
7:53 AM50.0 °F48.0 °F93 %30.11 in5.0 miNW (310°)3.5 mphOvercast
8:09 AM50.0 °F48.2 °F94 %30.09 in5.0 miWNW (290°)3.5 mphOvercast
8:35 AM51.8 °F48.2 °F88 %30.09 in5.0 miCalmOvercast
8:53 AM51.1 °F48.0 °F89 %30.11 in6.0 miSW (230°)3.5 mphOvercast
9:53 AM51.1 °F48.0 °F89 %30.13 in6.0 miWest (270°)4.6 mphOvercast
10:10 AM50.0 °F46.4 °F87 %30.11 in8.0 miWest (270°)4.6 mphOvercast
10:53 AM51.1 °F46.9 °F86 %30.13 in10.0 miWest (270°)3.5 mphOvercast
11:53 AM52.0 °F46.0 °F80 %30.12 in10.0 miSW (230°)4.6 mphOvercast
12:53 PM52.0 °F46.9 °F83 %30.09 in10.0 miWSW (240°)6.9 mphOvercast
1:53 PM52.0 °F46.9 °F83 %30.06 in10.0 miSW (230°)9.2 mphOvercast
2:53 PM50.0 °F46.9 °F89 %30.06 in7.0 miWSW (240°)6.9 mphOvercast
3:53 PM48.9 °F43.0 °F80 %30.02 in10.0 miSW (230°)11.5 mph0.00 inOvercast
4:53 PM50.0 °F45.0 °F83 %29.97 in9.0 miSSW (210°)10.4 mphOvercast
5:27 PM48.2 °F46.4 °F93 %29.94 in2.5 miSSW (200°)10.4 mph0.03 inRainRain
5:41 PM48.2 °F46.4 °F93 %29.93 in4.0 miSSW (200°)11.5 mph0.05 inRainLight Rain
5:53 PM48.0 °F46.9 °F96 %29.93 in6.0 miSouth (190°)10.4 mph0.06 inRainLight Rain
6:04 PM48.2 °F46.4 °F93 %29.91 in5.0 miSSW (210°)11.5 mph0.00 inRainLight Rain
6:27 PM48.2 °F46.4 °F93 %29.89 in3.0 miSouth (180°)8.1 mph0.04 inRainRain
6:50 PM46.4 °F46.4 °F100 %29.87 in2.5 miSSE (160°)4.6 mph0.10 inRainRain
6:53 PM46.9 °F46.0 °F97 %29.88 in3.0 miSSE (160°)5.8 mph0.11 inRainRain
6:58 PM46.4 °F46.4 °F100 %29.86 in2.5 miSSE (160°)5.8 mph0.03 inRainHeavy Rain
7:06 PM46.4 °F46.4 °F100 %29.85 in2.0 miSE (130°)5.8 mph0.06 inRainRain
7:13 PM46.4 °F46.4 °F100 %29.84 in3.0 miESE (120°)5.8 mph0.08 inRainRain
7:32 PM46.4 °F46.4 °F100 %29.83 in2.5 miEast (100°)4.6 mph0.15 inRainRain
7:43 PM46.4 °F44.6 °F93 %29.81 in4.0 miEast (100°)6.9 mph0.19 inRainRain
7:53 PM46.0 °F45.0 °F96 %29.82 in4.0 miEast (100°)5.8 mph0.23 inRainHeavy Rain
8:28 PM46.4 °F44.6 °F93 %29.82 in2.5 miNorth (10°)11.5 mph0.12 inRainHeavy Rain
8:46 PM44.6 °F44.6 °F100 %29.84 in3.0 miNNE (20°)5.8 mph0.20 inRainRain
8:53 PM45.0 °F43.0 °F93 %29.87 in4.0 miNorth (10°)10.4 mph0.22 inRainRain
9:05 PM44.6 °F42.8 °F93 %29.86 in7.0 miNNE (30°)8.1 mph0.04 inRainRain
9:53 PM42.1 °F39.9 °F92 %29.94 in10.0 miNorth (10°)8.1 mph0.09 inOvercast
10:28 PM42.8 °F39.2 °F87 %29.95 in10.0 miNorth (10°)10.4 mphMostly Cloudy
10:53 PM42.1 °F39.9 °F92 %29.99 in10.0 miNorth (360°)6.9 mphOvercast
11:53 PM43.0 °F39.9 °F89 %30.01 in10.0 miNorth (10°)9.2 mph17.3 mphScattered Clouds
Hourly data recorded from KACV, located miles away from Arcata, California







STORIES FROM OUR PARTNERS